Regional Weather Roundup
Issued by NWS

Home | Current Version | Previous Version | Text Only | Print | Product List | Glossary Off
Versions: 1 2 3 4 5 6 7 8 9 10 11 12 13 14 15 16 17 18 19 20 21 22 23 24 25 26 27 28 29 30 31 32 33 34 35 36 37 38 39 40 41 42 43 44 45 46 47 48 49 50

000
ASUS45 KSLC 120610
RWRUT

UTAH REGIONAL WEATHER ROUNDUP
NATIONAL WEATHER SERVICE SALT LAKE CITY UT
1100 PM MST THU FEB 11 2016

UTZ001>011-023>025-120700-

NORTHERN UTAH

CITY           SKY/WX    TMP DP  RH WIND       PRES   REMARKS
BRIGHAM CITY   CLOUDY    27  25  92 NE3       30.45R
HILL AFB       FOG       26  24  92 N2        30.41R VSB 1/4
LOGAN          FOG       22  22 100 CALM      30.43R VSB 1/2
OGDEN          FOG       26  25  96 NW3       30.42R VSB 1/2
PROVO AIRPORT    N/A     16  12  86 CALM      30.42R VSB<1/4
SALT LAKE CITY CLOUDY    30  27  88 NW6       30.42R FOG     WCI  24
VERNAL         CLOUDY    21  17  84 W3        30.42S FOG
WENDOVER       CLOUDY    30  27  86 S3        30.43S
HEBER CITY     PTCLDY    19  14  79 CALM      30.39S
WEST JORDAN    PTCLDY    27  25  93 NW6       30.41R WCI  20

$$

UTZ012>022-026-027-120700-

SOUTHERN/CENTRAL UTAH

CITY           SKY/WX    TMP DP  RH WIND       PRES   REMARKS
BLANDING       CLEAR     35  24  65 N3        30.45R
BRYCE CANYON   PTCLDY    27  17  66 W12       30.45R WCI  17
CEDAR CITY     MOCLDY    25  21  85 CALM      30.38S
DELTA          CLOUDY    16  15  95 CALM      30.43S VSB 1/4
HANKSVILLE     MOCLDY    32  30  93 CALM      30.43S
MILFORD        CLOUDY    12   9  87 S6        30.40F WCI   3
MOAB/CYNLANDS  PTCLDY    29  27  92 CALM      30.39S
PRICE          MOCLDY    31  22  69 N3        30.39R
ST GEORGE      PTCLDY    48  25  40 CALM      30.31R
KANAB          PTCLDY    36  30  80 NE7       30.39R WCI  30

$$

REGIONAL REPORTS     COLORADO/ARIZONA

CITY           SKY/WX    TMP DP  RH WIND       PRES   REMARKS
CRAIG, CO      CLOUDY    19  15  84 CALM      30.41S
GRAND JUNCTION CLOUDY    29  25  85 E5        30.41S WCI  24
RIFLE          CLOUDY    24  16  71 SW5       30.43R WCI  18
MONTROSE       CLOUDY    27  20  75 S9        30.44S WCI  18
CORTEZ         CLOUDY    25  21  85 E9        30.39S WCI  15
PAGE, AZ       MOCLDY    44  29  55 CALM      30.36S
GRAND CANYON   MOCLDY    27  20  75 CALM      30.41S
KINGMAN        CLEAR     41  26  55 CALM      30.26F
FLAGSTAFF      MOCLDY    27  19  72 CALM      30.43R

$$

REGIONAL REPORTS    NEVADA/IDAHO/WYOMING

CITY           SKY/WX    TMP DP  RH WIND       PRES   REMARKS
LAS VEGAS, NV  CLEAR     56  23  27 S3        30.19S
ELY            MOCLDY    26  19  74 S9        30.38S WCI  17
ELKO           CLOUDY    19  16  88 NE7       30.38R WCI  10
POCATELLO, ID  CLOUDY    29  23  78 NE8       30.36F WCI  21
BURLEY         CLEAR     31  28  89 NE6       30.31S WCI  25
EVANSTON, WY   CLOUDY    35  16  45 SW8       30.37F WCI  29
ROCK SPRINGS   CLOUDY    35  20  54 W15       30.36S WCI  25
KEMMERER       CLOUDY    30  19  64 NW7       30.38S WCI  23

$$



USA.gov is the U.S. government's official web portal to all federal, state and local government web resources and services.